This is the latest recevied weather packets stored in our database for station/object GAPWX. If no packets are shown the sender has not sent any weather packets the latest 10 day(s).
| Time | Temp. | Humidity | Pressure | Rain* | Wind** | Luminosity | Snow |
|---|---|---|---|---|---|---|---|
| 1777925090 | 6.11° C | 71% | 1013.1 hPa | 3.05 mm | - | - | - |
| 1777924790 | 6.11° C | 71% | 1013.1 hPa | 2.79 mm | - | - | - |
| 1777924486 | 6.11° C | 71% | 1013.1 hPa | 2.79 mm | - | - | - |
| 1777923891 | 6.11° C | 71% | 1013.1 hPa | 2.29 mm | - | - | - |
| 1777922982 | 6.67° C | 71% | 1013.1 hPa | 1.78 mm | - | - | - |
| 1777920574 | 7.22° C | 70% | 1013.1 hPa | 0.76 mm | - | - | - |
| 1777918761 | 7.22° C | 71% | 1013.1 hPa | 0.51 mm | - | - | - |
| 1777918161 | 7.22° C | 72% | 1013.1 hPa | 0.51 mm | - | - | - |
| 1777917253 | 6.67° C | 71% | 1013 hPa | 0.51 mm | - | - | - |
| 1777916953 | 6.67° C | 71% | 1012.9 hPa | 0.51 mm | - | - | - |
| 1777916652 | 6.67° C | 71% | 1012.9 hPa | 0.51 mm | - | - | - |
| 1777916351 | 6.67° C | 71% | 1012.9 hPa | 0.51 mm | - | - | - |
| 1777914843 | 6.67° C | 70% | 1012.8 hPa | 0.25 mm | - | - | - |
| 1777914544 | 7.22° C | 70% | 1012.8 hPa | 0.25 mm | - | - | - |
| 1777912432 | 7.22° C | 70% | 1012.7 hPa | 0 mm | - | - | - |
| 1777912136 | 7.22° C | 70% | 1012.6 hPa | 0 mm | - | - | - |
| 1777911831 | 7.78° C | 70% | 1012.7 hPa | 0 mm | - | - | - |
| 1777911528 | 7.78° C | 70% | 1012.6 hPa | 0 mm | - | - | - |
| 1777911227 | 7.22° C | 70% | 1012.6 hPa | 0 mm | - | - | - |
| 1777910930 | 7.78° C | 71% | 1012.8 hPa | 0 mm | - | - | - |
| 1777910336 | 7.22° C | 71% | 1012.7 hPa | 0 mm | - | - | - |
| 1777910028 | 7.22° C | 71% | 1012.7 hPa | 0 mm | - | - | - |
| 1777909417 | 7.22° C | 71% | 1012.7 hPa | 0 mm | - | - | - |
| 1777909118 | 7.22° C | 72% | 1012.5 hPa | 0 mm | - | - | - |
| 1777908819 | 7.22° C | 72% | 1012.7 hPa | 0 mm | - | - | - |
* Rain since midnight (hover to see other rain measurements)
** Current wind speed in m/s (hover to see current wind gust speed)